Flag for Saint Lucia Weather past 2 weeks in Vieux Fort, Saint Lucia

Now
79 °F

Passing clouds.


Feels Like: 82 °F
Forecast: 80 / 86 °F
Wind: 18 mph from East

Location: Hewanorra International Airport

Current Time: Jul 29, 2015 at 10:43:49 PM

Latest Report: Jul 29, 2015 at 10:00 PM


Visibility: N/A

Pressure: 29.98 "Hg

Humidity: 89%

Dew point: 75 °F

Location of Vieux FortLocation

Historic Weather in Vieux Fort — Graph

°F

Vieux Fort temperature yesterday

Maximum temperature yesterday: 88 °F (at 1:00 PM)
Minimum temperature yesterday: 81 °F (at 1:00 AM)
Average temperature yesterday: 83 °F

Past Weeks' High & Low Weather Summary

 TemperatureHumidityPressure
High88 °F (Jul 21, 2:00 PM)100% (Jul 16, 4:00 AM)30.07 "Hg (Jul 16, 4:00 AM)
Low73 °F (Jul 16, 5:00 AM)59% (Jul 19, 12:00 PM)29.92 "Hg (Jul 15, 5:00 PM)
Average83 °F77%30.00 "Hg
* Reported Jul 14 9:00 PM — Jul 29 9:00 PM, Vieux Fort, Weather by CustomWeather, © 2015

Note: Actual official high and low records may vary slightly from our data, if they occured in-between our weather recording intervals... More about our weather records

Advertising

Vieux Fort weather history for previous 24 hours

 ConditionsComfort  
Time TempWeatherWind HumidityBarometerVisibility
9:00 PM
Wed, Jul 29
81 °FPassing clouds.18 mph89%29.98 "HgN/A
8:00 PM81 °FPassing clouds.17 mph89%29.95 "HgN/A
7:00 PM82 °FSprinkles. Passing clouds.17 mph84%29.95 "HgN/A
6:00 PM82 °FScattered clouds.15 mph84%29.92 "HgN/A
5:00 PM84 °FSprinkles. Partly sunny.21 mph74%29.92 "HgN/A
4:00 PM86 °FPartly sunny.18 mph75%29.92 "HgN/A
3:00 PM88 °FScattered clouds.21 mph66%29.92 "HgN/A
2:00 PM86 °FPartly sunny.18 mph75%29.95 "HgN/A
1:00 PM86 °FScattered clouds.18 mph75%29.98 "HgN/A
12:00 PM86 °FScattered clouds.20 mph70%29.98 "HgN/A
11:00 AM86 °FPartly sunny.20 mph70%30.01 "HgN/A
10:00 AM86 °FScattered clouds.21 mph70%29.98 "HgN/A
9:00 AM84 °FScattered clouds.16 mph74%30.01 "HgN/A
8:00 AM82 °FPartly sunny.17 mph74%29.98 "HgN/A
7:00 AM82 °FScattered clouds.16 mph74%29.98 "HgN/A
6:00 AM81 °FScattered clouds.17 mph79%29.95 "HgN/A
5:00 AM81 °FPassing clouds.14 mph79%29.95 "HgN/A
4:00 AM81 °FSprinkles. Passing clouds.21 mph84%29.95 "HgN/A
3:00 AM81 °FPassing clouds.16 mph84%29.95 "HgN/A
2:00 AM81 °FPassing clouds.21 mph79%29.95 "HgN/A
1:00 AM81 °FPassing clouds.14 mph74%29.95 "HgN/A
12:00 AM84 °FPassing clouds.16 mph74%29.98 "HgN/A
11:00 PM
Tue, Jul 28
82 °FPassing clouds.17 mph74%29.98 "HgN/A
10:00 PM82 °FPassing clouds.22 mph74%29.98 "HgN/A
Weather by CustomWeather, © 2015

See weather overviewHow to use our weather pages